Погода в Муравлянке

Россия / Рязанская область     53°38′41″N   41°11′36″E
темп.,
°C
ветер,
м/с
пор.,
м/с
влажн.,
%
обл.,
%
осадки,
мм/ч
давл.,
гПа
погр.,
м
16 мая, вс
вс1600:00+15зюз22853 0.0 101326
03:00+14юз22880 0.0 101413
06:00+16ююз11822 0.0 101424
09:00+21ююз2263100 0.0 1014495
12:00+23ююз34504 0.0 10141559
15:00+24зюз234614 0.0 10141699
18:00+23зсз116198 0.0 101417
21:00+17всв237798 0.6 101429
17 мая, пн
пн1700:00+16всв3588100 1.8 101572
03:00+15в379455 1.9 1015131
06:00+16в369023 0.0 1014138
09:00+22вюв466945 0.0 1015382
12:00+26юв5947100 0.0 1014961
15:00+25юв5854100 0.0 1014849
18:00+23вюв4116449 0.0 1013469
21:00+19вюв41278100 0.0 1013208
18 мая, вт
вт1800:00+18юв51471100 0.0 1013259
03:00+16вюв5156111 0.0 1013272
06:00+16вюв5146544 0.0 1013261
09:00+21юв6115781 0.0 1012378
12:00+25юв69455 0.0 1012736
15:00+27вюв611475 0.0 10111254
18:00+24вюв613605 0.0 1010720
21:00+20вюв618655 0.0 1010439
19 мая, ср
ср1900:00+19вюв618595 0.0 1009458
03:00+18вюв515540 0.0 1009381
06:00+17вюв514640 0.0 1009342
09:00+22вюв6125799 0.0 1008586
12:00+25юв71252100 0.0 10071160
15:00+24ююв7145784 0.0 10071929
18:00+20ю59767 1.3 1008818
21:00+16ююв3990100 1.6 1008228
20 мая, чт
чт2000:00+15ююв388999 0.3 1008301
03:00+13юв5109526 0.6 1008331
06:00+12ю5109339 0.0 1008494
09:00+13ю61087100 0.2 1009816
12:00+16ю8117598 1.1 10091294
15:00+14ююз71179100 1.9 10101061
18:00+12ююз71185100 0.1 1012919
21:00+12ююз51184100 0.1 1012738